PA3DZX-13 Weather Reports


Display with metric or nautical units.
time (UTC)temp
F
wind
direction
speed
MPH
gust
MPH
rain 1hr
in
rain 24hr
in
rain mn
in
humidity
%
barometer
mb
20260906063619 50 144 2.0 2.0 0.00 0.00 0.00 94 1026.9
20260906062118 48 155 2.0 2.0 0.00 0.00 0.00 97 1026.9
20260906060618 44 141 0.0 2.0 0.00 0.00 0.00 97 1026.8
20260906055117 44 158 0.0 2.0 0.00 0.00 0.00 96 1026.9
20260906053617 42 128 0.0 2.0 0.00 0.00 0.00 96 1026.7
20260906052117 42 134 0.0 2.0 0.00 0.00 0.00 97 1026.6
20260906050616 42 148 0.0 2.0 0.00 0.00 0.00 96 1026.7
20260906045115 44 128 0.0 0.0 0.00 0.00 0.00 98 1026.6
20260906043615 44 132 0.0 2.0 0.00 0.00 0.00 97 1026.6
20260906042114 46 140 2.0 2.0 0.00 0.00 0.00 96 1026.6
20260906040615 46 168 2.0 2.0 0.00 0.00 0.00 95 1026.6
20260906035114 46 158 2.0 2.0 0.00 0.00 0.00 95 1026.7
20260906033614 48 161 2.0 4.0 0.00 0.00 0.00 96 1026.8
20260906032113 46 175 2.0 4.0 0.00 0.00 0.00 95 1026.9
20260906030613 44 177 2.0 4.0 0.00 0.00 0.00 94 1027.0
20260906025112 42 168 2.0 2.0 0.00 0.00 0.00 94 1026.9
20260906023612 44 171 0.0 2.0 0.00 0.00 0.00 96 1026.7
20260906022111 44 157 0.0 2.0 0.00 0.00 0.00 96 1026.7
20260906020611 46 149 2.0 2.0 0.00 0.00 0.00 96 1026.5
20260906015111 44 154 2.0 2.0 0.00 0.00 0.00 93 1026.5
20260906013611 44 136 0.0 2.0 0.00 0.00 0.00 94 1026.5
20260906012110 48 171 0.0 2.0 0.00 0.00 0.00 95 1026.8
20260906010610 46 198 0.0 2.0 0.00 0.00 0.00 97 1026.7
20260906005110 46 184 2.0 4.0 0.00 0.00 0.00 96 1026.5
20260906003609 46 173 2.0 4.0 0.00 0.00 0.00 94 1026.6
20260906002109 46 168 2.0 4.0 0.00 0.00 0.00 97 1026.5
20260906000609 46 186 0.0 0.0 0.00 0.00 0.00 94 1026.4
20260905235108 48 196 2.0 2.0 0.00 0.00 0.00 93 1026.4
20260905233609 48 220 0.0 2.0 0.00 0.00 0.00 93 1026.3
20260905232108 48 220 0.0 2.0 0.00 0.00 0.00 93 1026.3
20260905230608 50 195 0.0 2.0 0.00 0.00 0.00 93 1026.2
20260905225107 50 220 2.0 2.0 0.00 0.00 0.00 93 1026.0
20260905223608 50 238 2.0 2.0 0.00 0.00 0.00 92 1025.8
20260905222107 50 258 2.0 2.0 0.00 0.00 0.00 88 1025.8
20260905220606 51 285 2.0 2.0 0.00 0.00 0.00 90 1025.7
20260905215105 51 251 2.0 2.0 0.00 0.00 0.00 89 1025.7
20260905213605 51 231 2.0 4.0 0.00 0.00 0.00 88 1025.6
20260905212104 51 267 4.0 4.0 0.00 0.00 0.00 84 1025.6
20260905210605 51 245 4.0 4.0 0.00 0.00 0.00 85 1025.5
20260905205105 51 263 2.0 4.0 0.00 0.00 0.00 84 1025.4
20260905203604 51 259 2.0 4.0 0.00 0.00 0.00 83 1025.3
20260905202105 53 265 2.0 4.0 0.00 0.00 0.00 83 1025.3
20260905200605 53 265 4.0 6.0 0.00 0.00 0.00 78 1025.2
20260905195104 55 241 2.0 4.0 0.00 0.00 0.00 79 1025.0
20260905193604 55 262 2.0 4.0 0.00 0.00 0.00 76 1024.9
20260905192104 57 283 4.0 6.0 0.00 0.00 0.00 71 1024.7
20260905190604 57 285 4.0 8.0 0.00 0.00 0.00 72 1024.7
20260905185103 57 285 4.0 6.0 0.00 0.00 0.00 72 1024.4
20260905183603 59 284 4.0 11.0 0.00 0.00 0.00 70 1024.3
20260905182102 60 296 6.0 11.0 0.00 0.00 0.00 67 1024.2
20260905180602 60 299 6.0 11.0 0.00 0.00 0.00 66 1024.2
20260905175101 62 299 11.0 17.0 0.00 0.00 0.00 63 1024.0
20260905173601 62 299 11.0 17.0 0.00 0.00 0.00 63 1024.0
20260905172101 62 275 13.0 20.0 0.00 0.00 0.00 57 1023.6
20260905170601 64 274 13.0 20.0 0.00 0.00 0.00 56 1023.5
20260905165100 64 283 11.0 20.0 0.00 0.00 0.00 55 1023.1
20260905163600 64 290 8.0 20.0 0.00 0.00 0.00 58 1022.9
20260905162100 64 278 13.0 22.0 0.00 0.00 0.00 57 1022.7
20260905160600 66 282 11.0 17.0 0.00 0.00 0.00 60 1022.6
20260905155100 64 295 11.0 15.0 0.00 0.00 0.00 62 1022.4
20260905153600 64 300 8.0 13.0 0.00 0.00 0.00 64 1022.3
20260905152059 64 306 8.0 15.0 0.00 0.00 0.00 66 1022.2
20260905150559 64 298 8.0 15.0 0.00 0.00 0.00 65 1022.1
20260905145058 64 261 13.0 20.0 0.00 0.00 0.00 62 1021.8
20260905143559 64 259 13.0 20.0 0.00 0.00 0.00 62 1021.8
20260905142058 64 270 13.0 24.0 0.00 0.00 0.00 63 1021.6
20260905140557 64 269 15.0 24.0 0.00 0.00 0.00 63 1021.6
20260905135057 66 271 13.0 22.0 0.00 0.00 0.00 61 1021.2
20260905133558 66 264 13.0 22.0 0.00 0.00 0.00 59 1021.1
20260905132057 66 273 13.0 22.0 0.00 0.00 0.00 60 1021.2
20260905130557 66 276 15.0 26.0 0.00 0.00 0.00 59 1021.1
20260905125057 64 273 13.0 24.0 0.00 0.00 0.00 61 1020.8
20260905123558 64 269 13.0 22.0 0.00 0.00 0.00 64 1020.8
20260905122057 66 279 15.0 22.0 0.00 0.00 0.00 61 1020.5
20260905120557 64 288 13.0 24.0 0.00 0.00 0.00 62 1020.5
20260905115056 64 300 13.0 20.0 0.00 0.00 0.00 61 1020.2
20260905113556 64 304 11.0 20.0 0.00 0.00 0.00 62 1020.0
20260905112055 66 288 11.0 20.0 0.00 0.00 0.00 61 1019.7
20260905110555 64 284 11.0 20.0 0.00 0.00 0.00 63 1019.9
20260905105055 64 259 15.0 24.0 0.00 0.00 0.00 65 1019.6
20260905103555 66 256 15.0 26.0 0.00 0.00 0.00 63 1019.4
20260905102054 64 260 15.0 22.0 0.00 0.00 0.00 68 1019.2
20260905101825 64 260 15.0 22.0 0.00 0.00 0.00 68 1019.2
20260905100324 62 253 15.0 24.0 0.00 0.00 0.00 70 1019.0
20260905095529 64 252 15.0 26.0 0.00 0.00 0.00 64 1018.8
20260905094027 66 249 15.0 29.0 0.00 0.00 0.00 67 1018.6
20260905092527 64 257 20.0 29.0 0.00 0.00 0.00 68 1018.6
20260905091026 64 251 15.0 24.0 0.00 0.00 0.00 71 1018.4
20260905085526 64 243 13.0 22.0 0.00 0.00 0.00 75 1018.3
20260905084025 64 237 15.0 26.0 0.00 0.00 0.00 73 1018.0
20260905082525 62 244 15.0 26.0 0.00 0.00 0.00 73 1017.9
20260905081025 62 243 15.0 24.0 0.00 0.00 0.00 75 1017.7
20260905075524 62 239 15.0 24.0 0.00 0.00 0.00 75 1017.6
20260905074023 60 240 11.0 17.0 0.00 0.00 0.00 76 1017.4
20260905072523 60 238 13.0 17.0 0.00 0.00 0.00 77 1017.3
20260905071023 59 239 13.0 20.0 0.00 0.00 0.00 78 1017.3
20260905065523 59 236 11.0 15.0 0.00 0.00 0.00 79 1017.2